Content
SEND FEEDBACK

Daily
Averages
Monthly
Summary
Brazil

TERESINA, PIAUI


Home > South America > Brazil > Piaui
Elevation: 328 feet     Latitude: 05 03S     Longitude: 042 48W

WEATHER
 
SELECT A DAY
Number of Records: 168,275;   Date Range: 6/30/96 - 12/18/14
 
SHARE

PRINT THIS DATA

[ ← Previous Day ]
WEATHER ALMANAC - OCTOBER 12, 2013
[ Next Day → ]
[ °C ]   °F
Weather ElementAverageHighLow
Temperature90.9 °F100.4 °F (3:00 pm)80.6 °F (3:00 am)
Dewpoint62.2 °F69.8 °F (3:00 am)55.4 °F (4:00 pm)
Humidity39.7 %70 % (3:00 am)17 % (3:00 pm)
Barometer29.81 in29.90 in (9:00 am)29.71 in (5:00 pm)
Wind Speed4.1 mph10.4 mph (8:00 am)
Weather ElementAverage
Visibility7.9 mi
Wind DirectionSSE (158.5 °)

Weather ElementTotal
Precipitation---
Cooling Degree Days25.5 (Base 65)
Growing Degree Days40.5 (Base 50)
Averaged from 27 records on October 12, 2013
WEATHER CONDITIONS BREAKOUT
WIND DIRECTION BREAKOUT
WEATHER BY HOUR - OCTOBER 12, 2013
[ °C ]   °F
Local TimeTemperatureDewpointHumidityBarometerVisibilityWind DirectionWind SpeedGust SpeedPrecipitationEventsConditions
1:00 AM86.0 °F64.4 °F48 %29.83 inNorth (350°)2.3 mphClear
2:00 AM82.4 °F68.0 °F62 %29.80 inNNW (330°)2.3 mphClear
3:00 AM81.0 °F69.0 °F59 %29.82 in12.0 miNorth2.3 mph
3:00 AM80.6 °F69.8 °F70 %29.83 inNorth (360°)2.3 mphClear
4:00 AM80.6 °F68.0 °F65 %29.83 inCalmClear
5:00 AM80.6 °F69.8 °F70 %29.83 inCalmClear
6:00 AM80.6 °F68.0 °F65 %29.86 inSouth (170°)2.3 mphClear
7:00 AM84.2 °F62.6 °F48 %29.89 inSSE (150°)9.2 mphClear
8:00 AM86.0 °F62.6 °F45 %29.89 inSE (130°)10.4 mphClear
9:00 AM89.0 °F63.0 °F32 %29.90 in12.0 miSSE (160°)9.2 mphScattered Clouds
9:00 AM89.6 °F62.6 °F40 %29.89 in6.2 miSSE (160°)9.2 mphPartly Cloudy
10:00 AM91.4 °F62.6 °F38 %29.89 in6.2 miESE (120°)2.3 mphScattered Clouds
11:00 AM95.0 °F60.8 °F32 %29.86 in6.2 miESE (120°)5.8 mphPartly Cloudy
12:00 PM96.8 °F60.8 °F30 %29.83 in6.2 miSSE (160°)6.9 mphMostly Cloudy
1:00 PM98.6 °F60.8 °F29 %29.80 in6.2 miSouth (180°)4.6 mphScattered Clouds
2:00 PM98.6 °F59.0 °F27 %29.77 in6.2 miSSE (160°)4.6 mphScattered Clouds
3:00 PM100.0 °F59.0 °F17 %29.74 in12.0 miSSW (200°)4.6 mphPartly Cloudy
3:00 PM100.4 °F59.0 °F25 %29.74 in6.2 miSSW (200°)4.6 mphScattered Clouds
4:00 PM100.4 °F55.4 °F22 %29.74 in6.2 miSSE (150°)2.3 mphScattered Clouds
5:00 PM100.4 °F55.4 °F22 %29.71 in6.2 miSSE (150°)2.3 mphPartly Cloudy
6:00 PM98.6 °F55.4 °F24 %29.74 in6.2 miSE (140°)1.2 mphPartly Cloudy
7:00 PM95.0 °F59.0 °F30 %29.74 inSSW (200°)1.2 mphClear
8:00 PM91.4 °F60.8 °F36 %29.77 inSouth (190°)2.3 mphClear
9:00 PM94.0 °F58.0 °F21 %29.81 in12.0 miSouth (170°)5.8 mphMostly Cloudy
9:00 PM95.0 °F59.0 °F30 %29.80 inSouth (170°)5.8 mphClear
10:00 PM89.6 °F62.6 °F40 %29.83 inNNE (30°)5.8 mphClear
11:00 PM87.8 °F64.4 °F46 %29.83 inSE (130°)1.2 mphClear
Hourly data recorded from SBTE, located miles away from Teresina, Piaui







STORIES FROM OUR PARTNERS